Location: Newark
(45.4041°N, 17.9426°E)
Time: 00:24:53
(UTC+00:00)

Envisat - Pass Details

Date: 25 September 2019
Orbit: 764 x 766 km, 98.1° (Epoch: 20 October)

Event Time Altitude Azimuth Distance (km) Brightness Sun altitude
Rises 17:57:10 0° 201° (SSW) 3,220 6.3 -14.1°
Reaches altitude 10° 17:59:55 10° 215° (SW) 2,299 5.7 -14.6°
Maximum altitude 18:03:55 23° 268° (W) 1,583 5.5 -15.3°
Drops below altitude 10° 18:07:56 10° 320° (NW) 2,312 6.3 -16.0°
Sets 18:10:43 0° 335° (NNW) 3,243 6.9 -16.4°
